FW7834 Weather Reports


time (UTC)temp
F
wind
direction
speed
knots
gust
knots
rain 1hr
in
rain 24hr
in
rain mn
in
humidity
%
barometer
mb
20260505053749 57 234 2.6 2.6 0.00 0.00 0.00 79 1012.0
20260505053246 57 248 5.2 7.0 0.00 0.00 0.00 79 1011.7
20260505052743 57 225 3.5 6.1 0.00 0.00 0.00 78 1011.9
20260505052240 58 247 5.2 7.8 0.00 0.00 0.00 78 1011.7
20260505051736 58 239 6.1 7.0 0.00 0.00 0.00 77 1011.6
20260505051234 58 247 4.3 5.2 0.00 0.00 0.00 77 1011.7
20260505050732 58 264 1.7 2.6 0.00 0.00 0.00 77 1011.8
20260505050230 58 217 4.3 6.1 0.00 0.00 0.00 77 1011.6
20260505041700 58 206 1.7 1.7 0.00 0.00 0.00 76 1011.3
20260505041157 58 227 1.7 4.3 0.00 0.00 0.00 76 1011.1
20260505040654 58 197 2.6 5.2 0.00 0.00 0.00 76 1011.0
20260505040152 58 247 2.6 4.3 0.00 0.00 0.00 76 1011.0
20260505035648 58 255 1.7 2.6 0.00 0.00 0.00 75 1011.2
20260505035144 59 244 2.6 5.2 0.00 0.00 0.00 75 1010.8
20260505034641 59 223 0.9 1.7 0.00 0.00 0.00 74 1010.9
20260505034138 59 57 1.7 1.7 0.00 0.00 0.00 74 1010.6
20260505033634 59 230 2.6 2.6 0.00 0.00 0.00 74 1010.8
20260505033133 59 269 1.7 1.7 0.00 0.00 0.00 74 1010.5
20260505032631 59 249 1.7 1.7 0.00 0.00 0.00 75 1010.6
20260505032127 59 260 0.9 0.9 0.00 0.00 0.00 75 1010.7
20260505031624 59 241 2.6 2.6 0.00 0.00 0.00 75 1010.4
20260505031120 59 241 1.7 1.7 0.00 0.00 0.00 75 1010.5
20260505030617 60 242 6.1 7.8 0.00 0.00 0.00 73 1010.3
20260505030113 60 222 3.5 4.3 0.00 0.00 0.00 73 1010.4
20260505025609 60 251 1.7 1.7 0.00 0.00 0.00 73 1010.5
20260505025108 61 295 1.7 2.6 0.00 0.00 0.00 72 1010.2
20260505024605 61 254 2.6 4.3 0.00 0.00 0.00 72 1010.3
20260505024102 61 220 6.1 7.8 0.00 0.00 0.00 71 1010.3
20260505023559 62 249 2.6 2.6 0.00 0.00 0.00 71 1010.3
20260505023057 62 239 1.7 1.7 0.00 0.00 0.00 71 1010.3
20260505022554 62 241 3.5 5.2 0.00 0.00 0.00 70 1010.3
20260505022051 62 239 4.3 5.2 0.00 0.00 0.00 70 1010.4
20260505021547 63 257 3.5 4.3 0.00 0.00 0.00 69 1010.3
20260505021044 64 236 3.5 4.3 0.00 0.00 0.00 68 1010.3
20260505020544 64 224 3.5 4.3 0.00 0.00 0.00 67 1010.1
20260505020041 66 230 2.6 4.3 0.00 0.00 0.00 66 1010.4
20260505015538 67 260 4.3 6.1 0.00 0.00 0.00 63 1009.9
20260505015035 68 243 2.6 2.6 0.00 0.00 0.00 63 1010.3
20260505014532 68 266 4.3 5.2 0.00 0.00 0.00 62 1010.2
20260505014029 68 225 3.5 5.2 0.00 0.00 0.00 62 1010.3
20260505013526 70 261 6.1 7.0 0.00 0.00 0.00 61 1009.9
20260505013024 70 259 3.5 4.3 0.00 0.00 0.00 59 1010.1
20260505012522 70 247 3.5 4.3 0.00 0.00 0.00 58 1010.3
20260505012019 71 257 4.3 6.1 0.00 0.00 0.00 57 1010.0
20260505011514 72 229 4.3 6.1 0.00 0.00 0.00 54 1010.1
20260505011011 73 241 4.3 5.2 0.00 0.00 0.00 51 1010.2
20260505010506 73 229 2.6 4.3 0.00 0.00 0.00 50 1010.4
20260505010003 73 243 4.3 7.0 0.00 0.00 0.00 49 1010.3
20260505005500 72 256 3.5 5.2 0.00 0.00 0.00 49 1010.2
20260505004957 74 256 4.3 6.1 0.00 0.00 0.00 47 1010.1
20260505004454 73 238 1.7 2.6 0.00 0.00 0.00 49 1010.2
20260505003950 73 255 4.3 5.2 0.00 0.00 0.00 48 1010.1
20260505003448 73 255 2.6 4.3 0.00 0.00 0.00 50 1010.3
20260505002944 73 244 4.3 5.2 0.00 0.00 0.00 50 1010.3
20260505002440 73 242 3.5 4.3 0.00 0.00 0.00 49 1010.4
20260505001939 74 253 2.6 2.6 0.00 0.00 0.00 50 1010.4
20260505001436 74 251 3.5 5.2 0.00 0.00 0.00 49 1010.3
20260505000933 73 253 3.5 4.3 0.00 0.00 0.00 51 1010.4
20260505000431 73 254 2.6 2.6 0.00 0.00 0.00 52 1010.2
20260504235927 73 245 2.6 4.3 0.00 0.00 0.00 49 1010.3
20260504235425 74 265 3.5 4.3 0.00 0.00 0.00 50 1010.5
20260504234921 74 254 2.6 4.3 0.00 0.00 0.00 50 1010.3
20260504234419 75 244 3.5 5.2 0.00 0.00 0.00 50 1010.3
20260504233915 73 243 4.3 6.1 0.00 0.00 0.00 51 1010.7
20260504233411 75 268 4.3 5.2 0.00 0.00 0.00 50 1010.4
20260504232908 75 258 1.7 1.7 0.00 0.00 0.00 49 1010.6
20260504232405 74 235 5.2 6.1 0.00 0.00 0.00 50 1010.5
20260504231902 74 243 3.5 4.3 0.00 0.00 0.00 51 1010.5
20260504231358 74 268 5.2 6.1 0.00 0.00 0.00 50 1010.4
20260504230854 74 215 2.6 2.6 0.00 0.00 0.00 54 1010.5
20260504230352 74 254 3.5 5.2 0.00 0.00 0.00 53 1010.4
20260504225850 74 245 2.6 2.6 0.00 0.00 0.00 53 1010.7
20260504225347 74 225 2.6 2.6 0.00 0.00 0.00 54 1010.4
20260504224844 74 262 4.3 6.1 0.00 0.00 0.00 53 1010.5
20260504224341 76 256 5.2 6.1 0.00 0.00 0.00 51 1010.6
20260504223837 77 229 3.5 4.3 0.00 0.00 0.00 51 1010.7
20260504223333 76 238 2.6 2.6 0.00 0.00 0.00 52 1010.6
20260504222830 75 252 2.6 2.6 0.00 0.00 0.00 54 1010.7
20260504222327 75 272 3.5 4.3 0.00 0.00 0.00 54 1010.8
20260504221826 75 244 3.5 5.2 0.00 0.00 0.00 55 1010.5
20260504221321 75 216 2.6 4.3 0.00 0.00 0.00 53 1010.9
20260504220819 77 246 3.5 5.2 0.00 0.00 0.00 53 1010.8
20260504220315 78 236 2.6 4.3 0.00 0.00 0.00 50 1010.8
20260504215813 78 243 2.6 2.6 0.00 0.00 0.00 48 1010.7
20260504215309 79 265 1.7 1.7 0.00 0.00 0.00 48 1010.7
20260504214805 79 232 1.7 1.7 0.00 0.00 0.00 47 1010.8
20260504214302 79 269 2.6 4.3 0.00 0.00 0.00 46 1011.0
20260504213758 79 257 2.6 2.6 0.00 0.00 0.00 44 1010.8
20260504213254 80 247 0.9 0.9 0.00 0.00 0.00 47 1011.0
20260504212752 80 228 3.5 5.2 0.00 0.00 0.00 42 1010.9
20260504212248 80 243 1.7 1.7 0.00 0.00 0.00 43 1011.0
20260504211746 80 261 2.6 2.6 0.00 0.00 0.00 42 1011.0
20260504211242 79 254 2.6 4.3 0.00 0.00 0.00 45 1011.1
20260504210739 81 230 0.9 0.9 0.00 0.00 0.00 44 1011.1
20260504210236 80 280 0.9 0.9 0.00 0.00 0.00 46 1011.0
20260504205733 80 241 0.9 0.9 0.00 0.00 0.00 46 1011.3
20260504205231 79 254 0.9 1.7 0.00 0.00 0.00 48 1011.2
20260504204729 78 248 1.7 1.7 0.00 0.00 0.00 45 1011.0
20260504204227 78 244 1.7 1.7 0.00 0.00 0.00 46 1011.1
20260504203726 78 217 0.0 0.9 0.00 0.00 0.00 48 1011.2
20260504203223 77 262 2.6 2.6 0.00 0.00 0.00 46 1011.5
20260504202723 77 225 0.9 0.9 0.00 0.00 0.00 49 1011.3
20260504202221 78 251 2.6 4.3 0.00 0.00 0.00 48 1011.3
20260504201718 78 239 2.6 2.6 0.00 0.00 0.00 46 1011.3
20260504201215 77 285 0.9 0.9 0.00 0.00 0.00 51 1011.4
20260504200712 77 251 0.9 0.9 0.00 0.00 0.00 52 1011.5
20260504200208 76 254 0.0 0.9 0.00 0.00 0.00 49 1011.5
20260504195705 76 232 0.0 0.9 0.00 0.00 0.00 51 1011.5
20260504195201 77 245 1.7 2.6 0.00 0.00 0.00 48 1011.4
20260504194658 76 190 0.9 0.9 0.00 0.00 0.00 51 1011.7
20260504194154 76 174 1.7 1.7 0.00 0.00 0.00 52 1011.5
20260504193651 75 219 0.9 0.9 0.00 0.00 0.00 49 1011.4
20260504193148 76 241 0.9 0.9 0.00 0.00 0.00 47 1011.5
20260504192646 76 246 2.6 4.3 0.00 0.00 0.00 48 1011.4
20260504192144 76 269 0.9 0.9 0.00 0.00 0.00 48 1011.4
20260504191642 76 235 0.9 1.7 0.00 0.00 0.00 49 1011.5
20260504191138 75 132 1.7 1.7 0.00 0.00 0.00 51 1011.3
20260504190634 75 146 0.9 0.9 0.00 0.00 0.00 52 1011.6
20260504190131 75 177 1.7 4.3 0.00 0.00 0.00 50 1011.6
20260504185627 75 233 0.9 0.9 0.00 0.00 0.00 51 1011.4
20260504185124 75 216 1.7 1.7 0.00 0.00 0.00 52 1011.6
20260504184620 75 161 1.7 1.7 0.00 0.00 0.00 50 1011.7
20260504184115 75 174 0.0 0.0 0.00 0.00 0.00 50 1011.4
20260504183613 74 195 1.7 1.7 0.00 0.00 0.00 52 1011.6
20260504183110 74 198 0.9 0.9 0.00 0.00 0.00 53 1011.4
20260504182607 75 124 1.7 1.7 0.00 0.00 0.00 51 1011.7
20260504182105 74 268 0.9 0.9 0.00 0.00 0.00 52 1011.7
20260504181602 74 181 0.9 1.7 0.00 0.00 0.00 51 1011.6
20260504181100 73 105 0.9 0.9 0.00 0.00 0.00 53 1011.7
20260504180558 72 211 0.9 0.9 0.00 0.00 0.00 55 1011.7
20260504180057 72 214 0.9 0.9 0.00 0.00 0.00 53 1011.9
20260504175554 72 198 0.9 0.9 0.00 0.00 0.00 56 1011.9
20260504175050 72 220 0.9 1.7 0.00 0.00 0.00 56 1011.9
20260504174549 70 250 2.6 2.6 0.00 0.00 0.00 55 1011.8
20260504174045 70 254 2.6 2.6 0.00 0.00 0.00 55 1011.9
20260504173542 70 241 2.6 2.6 0.00 0.00 0.00 55 1011.7
20260504173040 70 247 0.9 1.7 0.00 0.00 0.00 57 1011.7
20260504172535 68 238 0.0 0.9 0.00 0.00 0.00 61 1011.7
20260504172032 68 253 2.6 2.6 0.00 0.00 0.00 60 1011.6
20260504171529 69 255 1.7 1.7 0.00 0.00 0.00 63 1011.7
20260504171026 69 244 1.7 1.7 0.00 0.00 0.00 65 1011.8
20260504170522 67 222 0.9 0.9 0.00 0.00 0.00 67 1011.8
20260504160442 63 234 0.0 0.0 0.00 0.00 0.00 71 1011.8
20260504150906 60 168 0.0 0.0 0.00 0.00 0.00 79 1011.7
20260504150403 59 108 0.9 0.9 0.00 0.00 0.00 80 1011.6
20260504141333 57 253 0.0 0.0 0.00 0.00 0.00 82 1011.3
20260504140829 56 251 0.0 0.0 0.00 0.00 0.00 84 1011.4
20260504140325 55 257 0.0 0.0 0.00 0.00 0.00 85 1011.5
20260504130754 48 256 0.0 0.0 0.00 0.00 0.00 97 1011.0
20260504130250 48 256 0.0 0.0 0.00 0.00 0.00 96 1010.9
20260504120214 49 258 0.0 0.0 0.00 0.00 0.00 95 1010.8
20260504110641 50 256 0.0 0.0 0.00 0.00 0.00 93 1010.9
20260504110137 50 257 0.0 0.0 0.00 0.00 0.00 92 1011.0
20260504100603 50 258 0.0 0.0 0.00 0.00 0.00 92 1011.0
20260504081956 53 257 0.0 0.0 0.00 0.00 0.00 85 1011.1
20260504081454 53 256 0.0 0.0 0.00 0.00 0.00 85 1010.9
20260504080949 53 255 0.0 0.0 0.00 0.00 0.00 86 1010.8
20260504080446 53 255 0.0 0.0 0.00 0.00 0.00 86 1010.9